Location: Campillo
(40.8621°N, 4.2488°W)
Time: 12:57:36
(UTC+00:00)

Cosmos 1437 - Pass Details

Date: 11 May 2021
Orbit: 338 x 344 km, 81.2° (Epoch: 13 June)

Event Time Altitude Azimuth Distance (km) Brightness Sun altitude
Exits shadow 21:05:49 53° 175° (S) 442 2.5 -16.7°
Maximum altitude 21:06:23 80° 100° (E) 364 2.2 -16.8°
Drops below altitude 10° 21:09:16 10° 12° (NNE) 1,329 5.7 -17.2°
Sets 21:11:14 0° 11° (N) 2,177 6.9 -17.5°
